Location: Bishop�s Knoyle
(51.0728°N, 2.1714°W)
Time: 22:23:49
(UTC+00:00)

Cosmos 1626 - Pass Details

Date: 18 September 2020
Orbit: 490 x 495 km, 82.5° (Epoch: 30 October)

Event Time Altitude Azimuth Distance (km) Brightness Sun altitude
Rises 20:12:02 0° 355° (N) 2,593 6.2 -18.5°
Reaches altitude 10° 20:14:15 10° 3° (N) 1,704 5.1 -18.8°
Enters shadow 20:17:27 39° 59° (ENE) 757 2.7 -19.2°
